This is the latest recevied weather packets stored in our database for station/object KC1DMA. If no packets are shown the sender has not sent any weather packets the latest 10 day(s).
| Time | Temp. | Humidity | Pressure | Rain* | Wind** | Luminosity | Snow |
|---|---|---|---|---|---|---|---|
| 1778011593 | 22.78° C | 55% | 1010.4 hPa | - | - | 519 W/m² | - |
| 1778011289 | 22.22° C | 55% | 1010.5 hPa | - | - | 540 W/m² | - |
| 1778010985 | 22.78° C | 54% | 1010.5 hPa | - | - | 541 W/m² | - |
| 1778010683 | 22.78° C | 55% | 1010.2 hPa | - | - | 568 W/m² | - |
| 1778010375 | 23.33° C | 55% | 1010.5 hPa | - | - | 600 W/m² | - |
| 1778010071 | 22.78° C | 54% | 1010.4 hPa | - | - | 562 W/m² | - |
| 1778009768 | 22.22° C | 55% | 1010.6 hPa | - | - | 629 W/m² | - |
| 1778009464 | 22.78° C | 55% | 1010.4 hPa | - | - | 627 W/m² | - |
| 1778009163 | 23.33° C | 54% | 1010.5 hPa | - | - | 648 W/m² | - |
| 1778008860 | 22.78° C | 55% | 1010.7 hPa | - | - | 659 W/m² | - |
| 1778008553 | 23.33° C | 54% | 1010.6 hPa | - | - | 672 W/m² | - |
| 1778008250 | 22.78° C | 56% | 1010.8 hPa | - | - | 697 W/m² | - |
| 1778007950 | 22.78° C | 56% | 1010.9 hPa | - | - | 697 W/m² | - |
| 1778007646 | 22.78° C | 54% | 1010.8 hPa | - | - | 706 W/m² | - |
| 1778007343 | 22.78° C | 55% | 1010.8 hPa | - | - | 710 W/m² | - |
| 1778007039 | 23.33° C | 54% | 1010.8 hPa | - | - | 723 W/m² | - |
| 1778006736 | 23.89° C | 55% | 1011 hPa | - | - | 730 W/m² | - |
| 1778006433 | 22.78° C | 54% | 1011 hPa | - | - | 740 W/m² | - |
| 1778006130 | 23.33° C | 54% | 1010.9 hPa | - | - | 749 W/m² | - |
| 1778005827 | 22.78° C | 54% | 1010.9 hPa | - | - | 756 W/m² | - |
| 1778005523 | 23.89° C | 53% | 1010.9 hPa | - | - | 765 W/m² | - |
| 1778005220 | 23.33° C | 53% | 1010.8 hPa | - | - | 774 W/m² | - |
| 1778004917 | 23.33° C | 53% | 1010.9 hPa | - | - | 783 W/m² | - |
| 1778004614 | 23.33° C | 53% | 1010.7 hPa | - | - | 785 W/m² | - |
| 1778004310 | 23.89° C | 51% | 1010.9 hPa | - | - | 791 W/m² | - |
* Rain since midnight (hover to see other rain measurements)
** Current wind speed in m/s (hover to see current wind gust speed)